To NAV CANADA Home Page Login to a new session Search on AWWS site Feedback and Comments Disclaimer Vers la page française équivalente Tips FAQ What's new on the site To the Forecasts and Observations / NOTAM section To "File a Flight Plan" website Publications and other links Update of the User's profile FIC Telephone Numbers My Weather Data Folder Route Weather Data Regional Weather Data Local Weather Data To the Forecasts and Observations / NOTAM section
Request Generated 05/29/2016 at 05:43:17 UTC . Weather information available at that time is displayed.

METAR/TAF

SANIKILUAQ/NU    

METAR CYSK 290500Z 01011KT 15SM SKC M02/M03 A3031 RMK CALL OUT LAST
OBS/NEXT 301200UTC SLP268=
METAR CYSK 290400Z 01011KT 15SM SKC M02/M02 A3031 RMK CALL OUT
SLP269=
METAR CYSK 290300Z 02010KT 15SM SKC M02/M02 A3033 RMK CALL OUT
SLP275=

CYSK - No TAF is issued for this station

Your time UTC time
Weather data provided by Environment Canada and NAV CANADA